Location: Pedholt
(56.0260°N, 10.2097°E)
Time: 01:41:19
(UTC+00:00)

SR - Pass Details

Date: 29 July 2021
Orbit: 581 x 873 km, 66.7° (Epoch: 27 September)

Event Time Altitude Azimuth Distance (km) Brightness Sun altitude
Rises 04:37:13 0° 152° (SSE) 3,431 ? 8.9°
Reaches altitude 10° 04:41:44 10° 120° (ESE) 2,458 ? 9.5°
Maximum altitude 04:43:20 11° 103° (ESE) 2,354 ? 9.7°
Drops below altitude 10° 04:44:56 10° 86° (E) 2,421 ? 9.9°
Sets 04:49:14 0° 54° (NE) 3,289 ? 10.5°
